Theta_e
282 282 282 284 283 282 281 280 280 279 280 280 279 280 279 279 273 275 279 279 279 279 281 283 284 285 288 290 291 291 292 292 292 292 292 292 292 293 293 293 293 294 294 294 294 294 294 295 295 295 295 296 300 302 303 305 306 306 306 308 308 309 309 309 309 310 311 311 312 312 312 312 312 312 312 312 312 312 313 312 313 313 313 313 313 312 312
282 282 283 284 284 282 282 281 280 281 281 280 280 279 278 278 278 279 279 279 278 281 281 283 284 286 288 289 291 292 292 291 291 291 291 291 291 291 292 292 293 293 293 294 294 295 295 294 294 294 294 294 294 297 299 301 304 305 305 306 307 308 308 309 310 311 311 312 312 312 312 312 312 312 312 312 312 313 313 314 313 313 313 314 313 312 312
280 283 285 285 284 283 282 282 282 281 281 282 281 281 281 282 280 279 280 279 278 282 283 284 285 285 287 287 288 289 291 291 290 289 289 289 290 291 292 292 293 293 294 294 294 295 295 294 294 295 294 294 294 294 295 297 300 300 303 305 306 307 308 309 311 311 311 312 312 312 312 312 311 312 312 312 312 312 312 312 312 312 313 313 312 312 313
279 282 283 283 284 284 282 281 281 280 280 279 279 279 281 279 280 279 279 278 275 281 283 284 284 284 285 284 284 285 286 289 289 288 288 288 288 288 290 291 293 294 294 293 294 294 295 295 295 295 295 295 295 294 294 294 295 298 300 302 303 303 306 306 307 308 309 311 310 310 311 311 311 311 311 311 311 311 311 311 311 311 311 312 311 312 312
275 281 283 283 283 282 280 278 280 280 280 280 281 281 282 281 281 280 278 277 279 281 285 281 282 283 283 284 284 284 285 285 286 287 287 287 287 287 288 289 290 292 294 294 294 294 295 296 295 295 295 296 295 294 294 294 295 294 295 297 300 302 303 305 305 305 307 307 307 307 308 309 310 310 310 310 310 310 310 311 310 310 310 310 310 310 310
275 279 280 281 279 271 273 281 284 284 280 281 281 279 280 282 281 278 279 281 281 281 281 281 281 282 283 283 284 285 284 284 284 285 286 286 287 287 288 288 289 290 291 293 294 295 295 296 297 295 296 296 296 295 295 295 293 292 292 292 296 298 300 301 302 303 304 304 304 304 304 305 307 308 308 308 308 308 307 307 308 307 307 307 307 307 307
276 278 279 275 269 271 279 282 284 286 284 283 280 281 281 281 282 282 282 282 283 283 283 282 282 283 283 284 284 285 286 285 284 284 285 286 286 287 287 287 288 289 289 290 291 294 296 296 297 296 296 297 296 296 295 295 294 295 293 292 292 293 297 297 298 299 301 301 301 301 301 302 303 306 306 304 305 304 305 305 305 306 306 305 306 306 306
273 272 273 270 267 277 280 281 282 284 283 282 283 281 281 281 281 282 281 282 283 283 284 284 284 284 284 284 285 285 285 285 285 285 285 285 286 287 288 288 288 289 291 290 291 293 296 295 295 296 296 296 296 296 295 295 295 295 294 294 294 294 294 294 295 297 299 299 301 300 298 298 301 302 302 303 303 300 299 299 300 301 301 302 303 303 302
272 268 264 268 277 277 279 278 280 281 280 280 278 274 278 281 281 281 281 281 282 282 283 283 283 284 283 281 283 284 285 285 285 285 285 285 286 286 288 287 287 288 288 289 290 291 291 292 292 293 294 295 295 295 295 296 296 296 295 296 295 295 296 294 295 295 296 297 297 295 295 297 298 299 299 297 296 296 298 297 299 299 299 298 299 300 298
272 270 266 264 262 263 274 278 280 282 283 283 281 278 277 282 281 282 281 280 281 281 282 281 282 283 283 280 279 282 284 285 285 285 285 285 286 286 285 286 287 287 288 289 290 290 289 290 290 291 292 294 293 293 294 294 295 296 296 296 297 296 296 295 296 295 296 296 296 295 295 296 296 296 296 295 295 296 299 296 297 295 294 295 294 295 296
270 268 268 266 266 267 273 279 281 281 281 281 280 277 275 280 279 281 280 280 280 280 280 280 281 279 278 277 278 281 283 284 284 284 285 285 285 285 286 285 286 287 288 289 291 289 289 289 290 290 291 292 292 292 292 292 294 294 294 295 296 297 297 297 295 294 296 296 296 295 295 296 297 296 296 296 295 294 295 296 295 293 296 295 292 291 292
271 269 267 267 264 269 277 279 279 281 280 281 279 270 268 278 279 280 279 279 279 280 280 280 279 277 274 277 277 281 284 285 284 285 285 285 285 286 286 286 287 288 289 288 288 288 288 289 289 290 291 291 292 292 292 291 291 292 293 294 294 296 296 297 295 294 296 298 296 295 294 295 295 296 296 296 295 295 295 297 296 294 294 293 292 289 289
272 273 267 267 268 276 279 279 281 280 282 281 272 268 270 279 279 280 279 279 279 279 280 278 276 280 279 280 282 283 284 285 286 287 288 288 287 287 288 289 291 288 287 287 287 287 287 287 288 289 290 290 291 291 290 290 291 292 292 293 294 295 296 296 295 294 296 297 298 297 296 295 295 296 296 297 295 296 295 295 295 294 292 291 290 288 288
268 266 270 268 267 272 280 280 281 281 281 272 268 273 278 279 280 280 279 280 280 279 280 280 279 281 282 284 282 282 283 283 284 286 287 288 289 289 290 291 290 289 288 288 288 288 288 288 289 288 288 289 290 289 289 289 291 292 292 293 293 294 295 295 295 295 295 296 297 298 297 296 296 296 295 296 296 296 296 296 295 292 290 290 289 288 288
269 267 266 268 268 275 281 280 279 280 273 271 279 280 281 281 280 281 281 281 281 280 281 280 281 279 280 280 281 281 282 283 284 284 285 285 286 286 286 287 288 289 287 287 287 287 288 288 289 289 288 288 289 289 288 290 291 291 292 292 293 293 294 294 295 295 296 297 298 299 298 297 297 296 296 295 295 295 295 295 295 292 290 289 289 288 287
267 267 267 267 272 277 282 280 274 279 280 282 281 281 280 282 281 281 281 281 282 282 282 282 281 281 281 281 281 282 283 283 283 284 285 285 285 285 286 286 286 288 286 287 287 287 288 289 289 289 288 288 289 289 289 290 290 291 291 292 292 292 293 293 294 294 296 297 296 296 296 296 296 295 295 295 295 295 295 295 294 292 290 290 290 289 288
273 271 273 278 280 281 283 283 283 283 285 285 286 285 284 283 284 285 284 284 284 284 284 283 283 283 283 282 281 280 281 281 282 283 283 284 284 284 284 285 287 286 286 286 286 286 287 287 288 288 288 287 288 288 289 290 290 290 291 291 291 292 292 293 293 294 294 295 295 293 294 294 293 293 294 295 295 293 295 294 294 294 291 292 292 289 288
283 283 284 285 284 285 285 287 287 286 287 287 287 287 285 286 286 285 285 285 285 285 283 284 284 283 282 281 281 281 281 281 282 283 283 283 283 283 283 284 284 285 285 285 285 285 286 287 287 287 288 287 287 289 290 290 291 290 291 291 291 291 291 292 293 293 293 294 296 296 296 293 293 294 294 294 295 293 293 293 294 293 291 291 290 290 288
277 273 282 282 283 284 285 285 288 288 288 287 287 286 285 286 285 284 285 284 284 285 283 284 284 283 281 281 281 280 281 281 281 281 281 282 282 282 282 283 285 284 284 284 284 285 285 286 286 287 287 288 288 289 289 290 290 290 290 290 290 291 290 291 291 291 291 291 293 294 296 294 293 293 293 293 293 294 293 293 291 291 291 291 290 289 288
270 272 281 282 283 283 284 284 284 285 285 285 285 285 285 284 285 285 285 283 284 282 282 281 280 280 280 280 280 280 280 280 281 281 281 281 282 283 283 283 284 283 283 283 283 284 284 285 286 286 286 286 287 288 288 289 289 289 289 289 289 290 291 291 291 291 291 289 291 292 292 293 293 293 291 292 293 293 293 293 292 291 291 291 291 291 290
276 277 278 278 280 280 281 282 282 283 283 283 284 284 284 284 284 283 283 283 282 282 282 280 279 280 279 279 279 279 280 280 281 281 282 282 282 282 283 283 284 283 284 284 284 284 284 285 285 285 285 286 287 287 287 288 288 288 288 289 289 289 290 291 291 291 292 291 291 291 290 288 287 289 293 293 295 295 295 296 297 294 291 292 293 293 293
268 271 277 278 272 270 279 280 280 281 281 282 283 282 284 283 283 281 281 281 281 280 280 280 281 280 280 280 279 279 280 280 281 281 282 282 283 283 284 285 285 285 285 285 284 285 285 285 285 285 285 286 286 287 287 288 288 287 288 288 288 288 289 289 291 292 292 291 291 290 289 288 287 286 284 287 288 292 293 291 292 292 293 295 295 293 292
266 274 277 281 277 275 275 278 281 280 281 281 282 282 281 280 280 280 280 280 281 282 281 280 280 280 280 280 279 279 280 281 282 282 283 283 284 284 285 285 285 285 285 285 285 285 286 286 286 286 286 286 286 287 287 288 288 288 287 287 287 288 288 288 289 290 290 291 291 290 289 289 289 288 286 287 287 287 288 289 290 291 290 291 291 291 293
279 278 279 279 278 279 281 279 279 281 280 281 281 280 281 280 281 280 279 279 281 280 279 279 280 280 280 280 279 280 280 281 282 283 285 285 285 286 286 285 285 285 285 285 285 285 286 287 287 287 287 287 287 287 287 287 287 287 287 287 287 287 288 288 288 288 288 289 289 288 287 288 289 288 287 288 288 288 287 288 290 290 289 289 290 290 290
279 280 278 279 279 278 280 281 281 281 284 284 281 281 280 281 282 282 282 281 280 280 280 280 280 280 279 280 279 280 281 282 284 285 286 286 286 285 285 284 284 284 284 285 285 286 287 287 287 287 287 288 289 288 288 288 287 286 286 287 286 287 287 288 288 288 287 287 287 287 287 286 287 288 288 288 288 286 288 287 287 287 287 288 289 289 288
280 280 280 280 280 280 281 281 282 282 281 282 283 283 286 287 284 284 281 280 281 279 279 279 280 280 280 280 281 281 282 283 284 285 285 285 284 284 284 284 285 286 286 286 286 286 287 287 287 287 287 288 288 289 289 288 287 286 286 286 287 287 287 287 287 288 287 287 287 287 287 287 287 287 287 288 286 286 287 287 288 287 287 287 288 288 288
280 281 282 281 280 281 280 280 280 281 281 280 281 282 281 280 287 284 280 280 280 280 280 280 280 280 280 280 282 283 284 284 285 285 285 284 284 284 285 286 286 286 286 286 286 286 286 286 287 287 287 288 289 290 290 289 288 288 287 287 287 285 285 286 287 287 287 287 287 286 286 287 287 287 288 287 287 287 288 288 288 287 285 284 285 287 287
280 280 279 278 276 278 280 280 280 281 280 281 280 281 280 279 280 281 280 280 280 280 279 279 279 279 280 281 282 283 284 284 283 283 283 283 284 285 286 286 286 286 286 286 286 286 287 287 287 287 287 289 290 290 290 290 289 289 288 288 287 287 287 286 287 287 287 287 287 287 287 287 288 288 287 287 287 287 287 288 287 284 282 283 283 286 287
280 279 280 279 279 278 279 280 280 281 281 280 280 279 279 280 280 279 279 279 279 279 280 279 280 279 279 281 283 284 283 283 283 282 282 283 285 285 285 285 286 286 285 286 286 287 287 287 286 286 287 289 289 290 290 290 290 289 289 289 288 287 287 287 287 287 287 287 287 287 286 287 287 287 286 287 286 286 286 285 284 284 284 283 284 285 286
279 279 281 280 279 281 282 280 281 280 281 281 280 280 279 280 280 280 279 279 279 279 280 279 278 280 279 281 283 284 283 283 283 283 284 284 285 285 285 285 285 286 286 285 285 286 286 286 286 286 287 289 289 290 290 290 290 290 290 290 289 289 288 288 287 286 286 287 287 285 287 286 286 287 286 286 286 286 286 285 284 283 283 284 285 284 284
279 280 280 280 280 281 282 281 281 280 280 280 279 280 280 279 279 279 280 280 279 279 280 279 279 280 279 280 282 284 284 283 282 283 284 284 284 284 284 285 284 283 283 284 285 285 285 286 286 286 288 288 289 290 290 290 291 291 291 291 290 288 287 287 286 287 287 286 286 287 287 286 286 286 285 285 285 285 285 285 283 283 284 284 284 284 284
280 279 280 280 279 280 280 280 280 280 280 279 280 281 280 280 280 281 281 281 281 281 280 279 279 279 279 279 280 281 281 282 282 283 283 283 283 283 284 284 284 284 284 284 285 286 286 285 285 286 287 288 289 290 291 291 291 291 291 289 291 290 288 287 287 287 288 287 287 286 286 286 285 285 285 284 285 285 285 284 284 283 283 283 283 284 284
279 280 279 280 280 280 279 279 280 280 279 279 278 280 279 279 279 281 281 282 281 280 279 278 279 278 277 278 279 281 281 282 282 282 282 282 282 283 284 284 284 284 284 285 286 286 285 285 285 287 287 288 289 291 291 291 290 290 290 291 291 291 288 287 288 288 288 288 287 287 286 286 285 285 285 285 285 284 284 284 284 283 284 284 284 284 285
280 280 280 280 281 280 280 281 280 279 279 279 278 278 279 280 280 280 280 281 281 280 279 279 278 277 276 277 279 280 281 281 280 281 281 281 282 283 283 284 284 284 285 286 286 286 285 286 286 286 287 288 290 291 290 290 290 289 290 290 290 290 290 289 288 289 288 287 287 286 286 285 285 284 284 285 285 284 284 284 284 283 283 283 284 284 285
280 280 280 280 280 281 282 282 281 280 280 278 278 278 279 279 278 279 279 280 280 280 280 280 278 278 277 278 280 280 281 280 280 281 281 282 282 283 283 283 283 283 284 285 285 285 285 286 286 286 286 289 290 290 290 290 290 290 290 290 290 290 290 289 289 289 288 287 287 286 286 285 284 284 284 285 284 283 283 282 284 284 284 283 284 285 285
280 281 280 279 279 280 281 280 281 281 280 277 276 277 279 280 279 278 278 279 279 281 280 279 278 278 280 281 281 280 280 280 281 281 281 282 282 283 283 282 282 282 282 283 285 284 285 285 285 285 286 288 289 290 289 289 290 290 290 290 289 289 289 288 288 288 287 287 286 285 284 284 283 284 284 284 284 284 284 284 283 284 284 284 284 285 285
280 282 281 280 280 280 280 280 280 280 279 279 279 279 280 279 278 278 278 278 279 279 279 277 277 280 281 282 282 281 281 281 281 281 282 282 282 282 282 281 281 280 281 281 283 284 284 285 285 285 286 287 288 289 288 287 289 290 289 289 289 289 288 288 288 288 287 286 285 285 285 284 284 284 284 285 285 285 285 284 284 285 285 285 285 285 285
281 282 281 281 281 280 280 281 280 279 279 279 278 278 279 279 278 278 278 278 278 278 279 278 279 281 282 283 282 281 281 281 281 281 281 281 282 282 281 280 280 280 279 280 282 283 284 284 284 285 286 286 286 287 287 286 287 290 289 289 288 288 287 287 287 287 287 287 286 286 286 285 284 284 285 285 285 285 285 285 285 285 285 285 285 285 285
281 280 280 280 280 280 280 280 279 279 280 280 281 280 279 278 277 278 278 277 277 278 279 280 281 282 282 282 282 281 280 281 281 281 281 281 281 280 279 279 279 279 280 282 283 283 283 284 284 285 285 286 286 287 286 286 287 289 289 289 289 288 287 287 287 287 287 287 287 287 287 286 286 285 285 286 286 286 285 286 286 285 285 285 285 285 285
280 281 282 280 280 280 280 280 280 279 279 279 279 280 280 278 278 278 277 278 279 279 280 280 281 281 281 281 281 279 279 279 279 278 279 280 280 279 279 280 281 281 281 282 282 283 283 283 284 284 284 285 286 286 286 286 286 286 287 287 287 287 287 288 288 287 287 287 286 286 286 286 286 286 285 286 286 286 286 285 285 285 285 285 285 284 284
282 281 280 280 281 280 280 280 281 280 279 279 278 279 278 278 278 278 278 278 278 279 279 279 280 280 280 280 280 280 279 278 278 277 277 278 278 278 277 278 280 280 281 281 282 283 283 283 283 283 283 284 285 285 286 286 286 285 285 285 286 286 286 286 286 286 286 286 286 286 286 285 285 285 285 285 285 285 285 285 285 285 285 284 284 284 283
282 280 280 280 280 281 281 281 280 280 280 279 279 278 278 277 278 279 278 277 278 279 279 279 280 279 279 279 278 278 278 277 277 278 278 277 277 276 276 277 280 279 281 281 281 282 282 283 283 283 283 284 284 285 285 285 285 285 285 284 284 284 284 284 285 285 285 285 285 285 285 285 285 284 284 284 284 284 284 284 284 283 283 283 283 283 283
281 281 281 281 281 280 281 281 280 281 280 281 279 279 278 277 278 277 278 277 277 278 278 278 279 279 278 277 277 277 277 277 277 277 277 277 278 278 278 278 279 279 280 280 280 280 281 282 282 283 284 284 284 284 285 285 285 284 284 284 284 284 284 284 284 284 284 284 284 284 284 284 283 283 282 282 282 282 282 282 282 282 282 282 282 282 282
282 282 282 282 281 282 281 281 280 280 280 281 281 279 278 278 278 278 278 277 277 277 278 278 278 278 278 277 276 276 276 276 276 276 276 276 277 277 279 279 279 279 280 279 279 280 280 280 281 282 283 283 284 284 284 285 285 284 284 284 284 283 283 283 283 283 283 282 283 283 283 282 282 282 282 281 281 281 281 281 281 281 281 281 281 281 281
282 282 282 282 282 281 281 281 281 282 282 281 280 278 278 278 278 278 278 277 277 277 277 277 277 278 277 277 276 277 277 277 277 277 276 276 275 276 279 279 278 278 279 279 279 279 280 280 281 281 281 282 283 283 283 283 283 283 283 283 284 283 283 283 283 283 282 282 282 282 282 282 281 281 281 281 280 280 280 280 281 281 281 281 281 281 281
282 282 282 282 281 282 283 283 283 282 281 280 280 278 278 278 278 278 278 278 277 277 278 278 278 278 278 278 277 277 276 276 277 277 277 277 276 277 278 278 277 279 279 279 279 279 279 280 280 281 281 281 281 281 282 282 282 282 282 283 283 283 283 283 283 282 282 282 282 281 281 281 281 281 281 281 280 280 280 280 280 281 281 281 281 281 281
282 282 282 282 283 283 283 282 282 281 280 280 280 281 279 278 278 278 278 278 278 277 277 277 278 278 278 278 277 277 277 277 277 278 277 277 277 278 277 278 279 279 278 278 278 279 279 279 280 280 280 280 280 281 281 281 281 281 281 281 281 282 282 282 282 282 282 282 282 282 281 281 281 281 281 281 281 281 281 280 280 281 281 281 281 281 280
282 282 283 283 283 283 282 281 281 281 281 282 282 283 280 278 278 278 277 277 277 277 277 277 278 277 277 277 277 277 277 277 273 276 276 277 277 277 277 277 277 279 278 278 278 278 279 279 279 280 280 280 280 280 280 280 280 280 280 280 280 280 280 280 281 281 281 281 281 281 281 281 281 281 281 281 281 281 281 281 281 281 281 281 281 281 281
282 283 283 283 282 282 282 282 281 281 282 282 281 282 279 278 278 278 277 277 277 277 277 277 277 278 278 278 278 277 277 277 275 276 278 276 277 277 277 278 279 278 277 277 278 277 278 279 279 279 279 279 279 279 279 279 279 279 279 279 279 279 280 280 280 280 280 280 281 281 281 281 281 281 281 281 281 281 281 282 282 282 281 281 281 281 281
282 282 282 282 282 282 282 282 282 283 283 282 282 281 279 278 277 278 277 277 277 277 276 276 276 277 278 277 277 277 277 278 277 277 277 278 277 277 277 277 278 278 278 277 277 277 277 278 278 278 278 277 278 278 278 279 278 278 278 278 278 279 279 280 280 280 280 280 280 280 280 280 280 280 281 281 281 281 281 281 281 281 281 281 280 280 280
281 282 283 284 284 284 284 284 285 284 284 283 283 280 279 279 279 279 278 278 277 277 277 276 276 276 276 277 277 277 277 277 277 278 277 277 277 278 278 277 277 278 277 276 275 274 275 276 276 276 277 277 277 277 277 277 277 277 277 277 277 277 278 278 278 279 279 279 279 279 279 279 279 279 279 279 280 280 280 280 280 280 280 280 279 279 279
284 284 285 285 284 283 283 284 284 284 283 282 281 280 279 279 279 278 277 278 278 278 277 277 276 277 276 276 277 276 277 276 277 277 278 277 277 277 277 278 276 276 276 276 275 277 275 275 277 277 277 276 275 276 277 277 277 276 277 277 277 277 277 276 277 277 277 278 278 278 278 278 279 279 278 278 278 278 277 277 278 278 278 278 278 279 278
Wind_Speed
6 6 6 4 6 4 3 4 3 4 4 6 5 0 1 2 3 8 3 5 6 1 3 5 5 5 6 7 8 7 5 8 12 14 15 13 12 12 12 10 10 10 10 9 10 10 10 10 11 9 8 7 6 5 5 3 1 1 2 4 5 5 5 6 7 8 9 9 7 8 8 9 9 9 9 10 8 7 4 2 5 8 9 8 7 6 3
7 9 9 7 7 3 5 7 6 3 11 7 6 5 3 2 4 8 12 11 7 1 2 4 4 4 4 4 5 10 14 12 11 13 13 12 10 10 9 8 8 8 8 9 9 11 12 12 12 10 9 8 7 5 5 5 3 2 2 0 3 5 6 7 8 10 9 8 9 9 10 11 11 12 11 10 11 12 13 12 8 7 8 8 7 8 7
4 5 6 8 7 5 6 6 6 4 8 12 7 5 4 10 8 5 12 12 7 2 1 3 3 3 2 10 15 12 9 10 11 13 12 11 10 9 9 8 8 8 9 10 11 12 11 11 10 9 8 6 6 7 6 4 3 4 3 2 1 1 5 7 8 6 6 8 8 8 8 7 6 7 10 10 11 11 9 9 9 8 7 8 8 8 9
1 1 6 6 9 11 8 4 6 7 4 7 2 4 1 2 8 5 6 8 4 2 2 3 3 4 11 12 9 10 9 9 11 13 11 11 11 11 10 10 10 11 10 10 10 9 9 9 9 10 10 8 9 8 6 6 4 3 3 2 1 1 1 3 3 3 3 5 6 6 6 6 7 6 6 6 7 8 9 10 9 8 8 7 7 8 6
3 6 7 12 10 7 3 2 1 1 4 4 5 4 5 2 3 10 8 6 3 3 1 6 5 8 9 9 7 7 8 8 9 10 10 9 9 9 9 10 10 10 9 8 8 8 8 9 9 8 7 9 10 8 8 6 5 4 2 0 0 1 1 2 3 3 2 3 4 3 4 4 5 6 6 6 6 7 9 9 8 9 7 6 6 6 7
5 5 3 1 4 3 5 2 2 1 4 6 9 2 3 3 1 1 3 8 5 5 4 8 6 9 7 6 4 3 4 6 7 8 7 7 6 6 7 7 8 8 8 8 7 6 6 6 6 5 5 6 5 4 5 7 8 5 3 1 0 2 2 3 3 3 3 2 2 1 1 3 4 5 6 7 6 5 5 5 6 5 4 5 4 4 5
7 3 2 3 3 6 3 6 2 1 5 6 13 7 4 5 5 8 10 9 8 7 6 8 8 7 5 5 7 7 5 5 5 6 6 6 6 6 7 9 8 6 6 7 9 9 8 8 8 9 10 9 7 7 8 8 7 9 8 4 3 1 1 1 2 3 3 2 2 2 2 3 3 5 5 4 5 5 6 7 7 7 6 6 6 5 5
3 4 3 3 3 2 3 3 3 4 4 2 7 9 5 5 3 2 7 6 5 5 6 5 5 7 7 6 7 6 5 4 5 6 5 4 5 7 5 5 5 6 6 5 5 6 5 6 7 8 7 7 8 8 5 6 6 5 6 8 8 5 1 1 2 3 4 5 5 4 4 3 4 5 4 6 6 4 3 3 2 2 2 2 4 4 3
6 3 3 1 2 1 3 3 1 1 0 0 1 5 1 1 1 2 5 3 2 2 1 1 2 1 1 6 6 4 4 4 3 3 3 3 4 3 4 3 4 4 3 4 4 3 4 4 7 7 6 6 6 8 9 8 6 6 6 6 6 6 7 3 1 3 3 4 4 4 4 5 5 5 5 4 4 4 5 4 5 5 5 3 3 4 5
6 7 4 3 4 1 7 5 1 1 0 0 3 5 1 1 2 0 3 4 2 2 0 0 0 3 2 2 2 3 3 3 3 3 2 3 3 4 4 5 5 5 5 5 4 4 5 5 5 4 5 6 7 7 8 8 8 7 6 6 5 5 5 4 2 1 1 2 4 3 5 6 6 4 3 4 5 4 7 6 6 6 5 6 5 4 5
4 4 7 4 7 7 4 4 1 2 1 3 3 4 1 1 0 2 2 4 1 3 4 1 2 3 2 1 2 3 1 3 2 1 3 3 3 4 5 5 7 8 8 7 6 7 7 8 8 6 5 6 7 7 7 8 7 8 8 8 7 7 7 6 4 2 5 1 1 2 4 5 6 6 6 6 4 3 4 6 6 6 6 7 6 5 5
1 6 4 3 2 1 1 2 3 2 0 3 3 2 6 4 0 2 2 4 3 1 1 3 6 5 2 1 2 1 1 1 3 1 3 4 3 4 4 5 4 5 6 7 8 9 9 9 8 8 6 6 5 5 5 4 6 6 7 8 9 8 8 8 6 4 3 4 3 3 5 3 3 6 5 6 5 6 4 6 7 6 6 7 8 5 4
2 5 0 2 2 4 2 2 4 2 3 3 5 8 3 0 2 2 2 2 2 1 2 1 3 0 1 1 2 3 3 3 3 2 1 2 2 4 4 4 5 4 5 5 6 7 7 7 7 7 8 8 8 5 4 4 5 5 6 7 8 8 6 7 8 5 5 4 6 6 6 4 2 1 3 6 6 6 7 6 7 6 7 6 7 5 4
2 2 5 2 1 3 1 3 3 3 4 4 7 2 1 3 2 2 2 2 1 1 1 1 2 0 3 4 4 4 4 3 4 3 3 4 4 3 3 5 7 7 6 6 6 7 7 8 8 7 6 7 8 7 6 6 6 5 5 5 5 7 8 7 7 8 4 4 4 5 6 6 5 3 1 3 4 6 6 7 8 7 6 6 7 7 5
2 3 4 2 2 1 2 4 2 3 2 2 3 3 0 1 2 1 1 2 2 3 1 1 1 2 3 3 3 4 4 4 5 7 8 9 9 9 10 9 7 7 7 8 7 6 7 7 7 7 6 6 6 6 7 8 7 6 5 5 5 5 7 8 7 7 8 3 3 3 6 7 9 8 7 6 6 6 8 7 8 8 7 7 7 7 5
2 2 2 2 0 4 5 1 2 1 2 6 3 5 2 1 1 1 1 1 1 1 0 1 1 1 1 3 3 5 5 7 8 8 7 7 8 9 8 6 7 7 7 6 8 6 5 6 6 6 6 8 7 7 8 7 6 5 5 6 5 5 6 7 7 6 6 7 3 1 2 3 6 7 6 6 7 7 7 7 7 7 5 5 6 6 6
1 2 4 2 0 2 4 5 6 4 4 3 2 3 3 3 1 1 0 2 2 1 2 3 3 4 3 2 2 2 3 4 4 5 6 7 7 7 8 9 9 9 9 11 11 12 8 5 5 5 5 6 8 9 8 5 6 7 7 7 7 7 7 7 6 6 6 4 7 4 2 3 4 4 5 5 6 3 7 6 6 7 5 5 6 6 5
4 6 5 2 2 3 6 6 4 5 3 4 3 3 2 1 0 2 1 0 1 3 2 2 5 3 4 5 5 4 3 3 4 4 4 5 5 5 6 6 7 7 9 10 10 12 13 9 7 4 5 5 8 9 8 8 7 7 7 8 7 7 7 7 8 6 4 7 5 6 7 5 1 2 6 5 5 4 3 5 6 7 6 5 5 5 5
2 1 0 1 2 1 1 3 2 1 1 2 2 3 2 1 2 1 1 1 1 1 0 2 4 5 4 4 4 4 5 6 6 6 7 6 5 6 8 7 6 8 7 9 10 11 13 12 10 9 6 6 8 7 8 9 9 8 8 8 8 7 6 7 8 6 5 4 5 10 9 5 3 1 0 1 4 7 7 6 5 5 6 6 6 6 6
2 2 4 2 1 1 1 0 1 2 2 2 1 1 1 1 2 2 1 1 0 1 0 1 1 2 2 2 5 5 5 6 6 7 7 9 9 8 6 7 6 7 8 9 11 11 11 10 9 11 11 10 9 8 8 7 8 9 10 9 8 9 9 7 7 6 7 7 7 7 7 8 7 8 2 2 4 4 5 6 7 7 7 7 8 8 7
1 3 1 1 2 4 3 3 2 2 2 0 1 1 2 3 3 2 3 1 1 2 2 3 2 1 3 3 4 4 5 5 6 7 8 8 9 9 10 10 8 9 9 11 11 12 12 9 9 10 11 12 11 10 9 7 7 9 10 9 8 9 9 8 7 7 7 6 6 7 7 5 4 4 8 9 10 9 8 9 11 9 7 6 8 9 9
1 5 5 5 3 2 5 4 4 3 1 2 0 1 0 0 0 1 3 3 1 2 3 2 1 2 4 4 3 4 5 6 7 8 8 9 10 10 9 9 10 12 12 11 12 12 12 10 9 10 10 10 10 10 9 8 7 8 8 7 7 8 7 7 7 6 5 6 5 6 5 5 4 3 3 2 3 7 9 5 4 5 11 11 12 9 9
3 6 7 7 4 1 3 4 2 3 1 2 2 2 2 2 0 1 2 2 0 0 1 2 1 4 4 6 3 4 5 7 6 7 9 11 12 12 12 12 13 12 13 15 14 14 12 11 11 11 11 11 10 9 8 9 7 8 7 7 8 8 7 7 7 7 6 5 6 5 3 4 4 5 4 4 6 5 4 4 8 7 9 7 12 13 13
1 2 5 6 2 2 1 2 2 1 1 2 2 2 1 1 1 1 1 2 1 2 3 4 2 4 5 5 3 5 7 7 7 8 9 10 12 12 12 11 12 14 13 12 12 13 12 12 12 12 13 12 11 11 10 10 9 10 10 9 9 8 7 7 7 6 6 6 5 5 4 4 4 5 4 5 2 8 11 5 2 8 11 10 14 14 13
1 2 4 5 3 2 0 0 0 0 1 3 1 2 1 1 1 3 3 2 1 1 2 4 5 2 3 4 4 5 6 7 7 9 11 12 11 11 11 11 12 11 11 11 11 11 12 13 13 13 13 13 12 11 10 10 10 11 11 10 11 9 8 7 7 6 6 6 5 5 5 5 5 5 6 5 5 4 6 9 10 8 5 6 10 11 12
2 5 3 3 2 2 0 2 1 1 0 2 2 0 0 3 3 2 2 2 1 1 2 3 4 5 3 4 5 5 6 8 9 11 10 10 11 11 10 10 11 11 11 11 12 12 12 14 13 13 13 13 12 11 10 10 10 11 11 11 11 9 8 7 7 7 6 5 5 6 6 6 6 6 6 6 7 6 6 6 7 8 11 11 6 10 10
3 4 6 4 1 0 1 3 2 4 2 2 4 3 2 2 4 4 2 2 2 2 3 2 2 3 3 3 4 5 7 9 9 8 8 10 10 9 10 10 12 12 13 12 11 12 14 13 13 12 13 13 12 11 11 11 11 11 11 11 10 11 14 11 8 8 7 6 6 5 5 6 6 7 7 7 5 6 8 8 8 7 4 4 6 4 5
2 1 2 2 2 3 3 4 2 4 3 4 4 4 2 1 2 2 1 2 2 2 2 2 2 2 3 4 4 7 7 9 10 9 8 9 9 9 10 11 11 12 11 10 11 12 11 11 11 11 13 13 12 11 11 10 11 11 11 11 10 9 8 10 9 8 7 7 6 6 6 6 6 6 6 7 8 8 6 4 5 6 3 2 3 4 8
2 2 1 1 1 1 2 3 3 3 2 1 2 1 2 3 1 1 2 3 3 1 3 4 1 2 3 4 4 6 8 8 9 9 8 8 9 9 9 10 10 10 9 9 10 10 11 10 12 14 13 12 11 11 10 10 10 10 10 10 9 9 8 8 8 7 7 7 7 7 6 6 6 6 5 5 5 6 6 6 6 3 6 7 8 8 8
2 0 1 1 2 4 5 4 4 3 3 2 3 1 1 2 2 4 4 4 3 3 4 3 3 3 3 3 4 5 8 8 7 7 8 8 9 9 9 9 9 7 6 8 10 11 11 12 12 13 13 12 12 11 11 10 9 10 11 11 9 9 8 8 7 8 7 7 7 8 6 6 5 6 6 6 7 6 7 7 7 8 8 6 6 10 10
1 2 3 2 3 3 4 5 4 3 2 0 1 1 0 1 1 3 5 4 3 4 4 3 3 4 3 3 4 4 5 6 6 7 7 7 8 9 8 8 7 7 8 10 11 11 11 12 12 12 12 13 12 12 11 10 9 9 8 9 9 11 13 12 10 8 7 7 7 7 7 7 6 6 6 6 6 6 5 6 8 4 5 7 8 8 8
4 3 4 2 1 3 2 1 3 3 3 1 1 1 3 2 4 5 5 4 5 4 4 3 4 4 4 3 3 4 4 5 5 5 6 7 9 8 8 7 7 6 7 9 9 9 10 12 12 13 13 13 13 12 10 9 8 9 9 7 7 7 9 13 9 9 8 7 7 7 7 7 7 7 6 6 7 7 7 7 8 8 7 8 8 8 9
2 1 1 0 0 0 2 3 4 4 3 3 4 3 3 3 3 4 5 5 4 4 3 4 4 4 3 3 3 4 4 4 4 4 6 8 9 9 8 7 6 6 7 7 8 8 9 11 13 13 13 14 13 12 10 9 7 7 7 6 6 6 6 9 9 7 7 7 7 7 6 6 6 7 7 7 6 4 6 7 7 7 7 7 8 8 8
5 5 5 4 6 6 5 5 4 3 3 3 3 3 3 4 4 4 4 4 3 4 4 4 3 3 2 3 3 4 4 5 5 6 8 9 9 9 9 8 7 6 6 7 7 7 9 11 12 12 13 12 12 10 10 9 7 6 6 5 5 4 4 6 8 7 6 6 6 6 6 6 6 6 6 7 7 6 4 5 7 7 8 7 7 7 9
4 3 2 3 4 4 4 5 5 5 4 3 3 3 3 3 3 4 4 3 4 4 2 1 1 1 1 2 3 4 5 6 6 7 8 8 8 9 8 9 8 7 9 8 8 10 11 11 12 13 13 11 12 11 11 10 8 7 8 5 1 3 4 6 5 5 5 5 5 5 5 6 6 5 6 6 6 7 5 1 4 9 8 9 8 7 8
3 2 1 2 2 3 4 4 4 4 4 4 4 4 4 5 4 4 4 3 3 2 1 1 1 1 1 2 4 5 6 6 7 7 7 9 9 7 7 7 8 10 10 10 9 11 13 12 16 20 13 10 11 11 12 10 8 9 8 8 7 7 6 5 5 6 5 5 5 5 6 6 6 6 6 7 7 7 5 6 1 4 9 9 9 9 7
4 4 4 3 3 4 4 4 4 4 4 4 4 3 4 4 4 4 3 3 2 1 1 2 2 1 0 0 2 2 3 4 4 5 6 6 6 6 6 7 8 9 8 9 12 12 12 12 17 19 11 9 10 11 12 15 9 8 8 8 7 7 7 7 6 6 6 6 7 7 8 7 6 6 6 7 8 7 7 6 5 7 9 8 7 7 7
5 4 4 4 4 4 4 5 3 3 2 1 3 4 4 4 4 3 2 2 2 1 2 2 2 2 2 1 1 2 4 5 5 6 6 7 6 6 5 7 8 8 8 7 10 10 9 12 16 11 9 9 9 9 12 16 13 9 8 8 8 8 8 8 7 7 6 6 6 6 7 7 8 7 7 7 7 8 7 8 7 7 8 8 8 7 6
1 1 1 1 1 3 3 1 2 2 3 4 4 4 4 4 4 1 2 3 2 1 2 2 2 2 2 1 1 2 3 4 5 6 6 6 6 5 5 4 3 4 5 8 9 8 8 10 9 8 9 9 10 9 11 13 13 9 9 8 9 8 8 8 8 8 7 7 7 7 7 7 7 8 7 7 7 7 7 8 9 8 7 8 7 7 6
4 4 4 3 3 3 3 3 3 3 3 3 2 4 5 3 4 3 2 2 2 0 1 2 2 1 1 2 1 1 2 3 3 4 6 5 5 5 5 4 6 7 8 9 8 7 10 12 9 7 8 8 8 8 8 11 10 9 9 9 9 9 8 8 8 8 8 7 8 8 8 8 8 8 7 8 8 8 8 8 9 8 8 7 7 6 6
5 4 3 4 4 3 4 4 5 4 2 2 3 4 4 4 3 2 3 3 2 1 0 1 1 1 1 2 2 1 1 2 3 3 3 4 5 6 5 6 8 8 9 9 8 8 9 8 8 8 8 8 7 8 7 10 9 8 8 8 8 8 8 9 8 8 8 8 8 8 8 8 8 8 8 8 8 7 8 8 7 7 7 7 6 5 6
6 4 3 4 4 4 4 4 3 3 4 3 3 3 3 3 4 5 4 2 1 0 1 1 2 0 1 1 1 1 2 3 3 4 3 3 3 4 6 6 7 7 11 11 9 8 8 8 8 7 8 7 7 11 10 8 8 7 7 8 8 8 8 8 8 8 8 8 7 7 8 8 8 8 7 8 8 8 7 7 7 6 5 5 6 5 6
5 5 6 5 5 4 5 4 4 5 4 5 4 3 3 3 4 2 1 1 1 1 1 2 2 2 1 0 0 1 2 3 3 3 4 3 2 1 2 6 7 7 11 8 7 7 7 7 7 6 9 9 8 10 10 8 7 8 8 8 8 8 8 7 7 7 8 8 8 8 8 8 8 8 7 7 7 5 6 7 7 6 6 6 7 7 7
5 5 5 5 5 6 5 4 4 3 3 6 4 2 3 4 4 4 4 3 2 3 3 3 2 2 1 1 1 0 2 2 3 3 2 4 5 2 2 4 5 7 10 7 6 6 7 7 7 8 11 12 12 11 8 7 7 7 8 8 8 7 8 8 7 8 8 8 7 6 6 7 6 5 6 6 7 7 7 7 6 6 7 7 7 7 7
6 7 7 8 6 4 4 5 5 7 6 2 1 2 3 4 4 4 4 4 4 3 3 3 3 3 3 2 2 1 1 1 0 0 3 4 4 5 5 5 6 5 7 7 6 6 6 6 8 11 10 12 12 11 8 7 7 7 7 8 8 8 8 8 8 8 8 8 8 8 7 7 7 7 7 7 7 7 7 7 7 7 7 7 7 7 7
5 6 6 5 4 6 8 8 7 4 2 1 1 2 3 4 5 4 4 4 4 4 5 5 4 4 4 3 2 0 1 0 0 1 2 2 1 3 4 5 4 4 7 8 6 6 6 9 11 10 11 12 11 9 8 7 7 7 8 8 8 8 8 8 8 7 8 8 8 7 7 7 7 7 7 7 7 7 7 8 7 6 6 7 7 7 6
6 4 5 6 7 7 5 4 2 3 3 2 4 5 4 4 5 5 5 5 5 4 4 4 4 4 4 4 5 3 1 1 2 1 1 0 1 2 3 4 5 6 6 6 5 6 6 6 8 10 11 11 11 7 7 8 8 8 8 8 7 7 7 7 7 7 7 7 8 8 9 8 8 8 7 7 7 7 7 7 7 6 6 7 6 6 6
6 6 6 6 8 7 3 3 3 4 6 8 7 7 4 4 5 4 4 3 3 3 3 3 4 4 4 3 3 3 4 5 2 1 1 1 2 2 3 3 4 5 6 5 6 7 10 10 10 10 10 10 8 7 7 7 7 7 7 7 7 7 6 6 6 6 6 7 7 7 7 7 7 8 7 7 6 6 6 6 7 7 6 6 6 5 5
6 7 6 5 4 3 4 5 5 6 7 7 5 6 4 4 3 4 4 3 3 3 5 4 4 4 4 4 4 5 4 3 1 1 2 2 2 2 2 3 5 6 5 5 5 5 8 10 9 10 10 8 6 7 7 7 7 7 7 6 6 6 6 6 5 5 6 7 7 7 7 7 7 6 6 7 6 6 6 6 6 6 5 5 5 5 5
5 3 3 4 5 6 6 6 6 8 7 6 7 6 4 5 4 6 6 6 6 5 5 4 4 5 5 5 5 4 4 3 2 1 2 3 2 2 2 3 3 4 5 4 5 5 6 8 8 9 7 5 6 6 6 7 7 6 6 7 7 6 6 7 6 8 7 7 7 7 6 6 6 6 6 6 5 5 5 6 6 7 9 6 5 5 5
5 6 7 7 8 7 7 8 9 8 7 7 7 5 6 6 7 6 7 7 5 5 6 5 4 4 4 4 4 4 3 3 3 4 4 3 3 3 3 3 3 3 3 4 4 3 3 4 4 5 6 5 5 6 5 6 5 6 6 5 5 6 6 7 6 5 5 6 6 5 5 6 5 6 5 5 6 6 5 6 6 5 5 5 5 5 5
6 7 7 6 6 6 6 6 5 5 5 5 5 6 6 7 6 5 4 6 7 7 7 6 6 6 5 5 5 4 4 4 4 4 3 4 4 3 2 3 3 3 4 4 3 4 3 3 5 5 5 5 4 4 5 6 6 5 5 6 5 5 6 6 6 5 5 5 5 5 6 5 4 5 5 4 4 5 5 5 5 5 4 4 5 5 4
Wind_Direction
30 27 26 7 67 46 71 10 9 54 19 54 96 113 96 95 126 189 155 97 88 323 329 328 344 352 3 23 30 35 43 47 49 49 47 44 40 38 37 30 28 27 25 18 18 20 20 22 24 21 19 16 19 16 10 8 13 165 160 162 161 152 146 151 161 169 182 186 176 158 157 157 157 158 160 153 143 114 100 164 173 172 160 155 145 121 113
34 9 9 5 78 88 43 24 13 33 78 66 78 66 4 75 103 127 109 90 89 11 331 346 343 333 24 48 51 50 45 42 52 57 51 45 40 38 35 30 29 29 28 26 24 25 24 24 23 23 22 16 10 15 4 355 16 12 27 72 139 146 161 170 175 183 176 165 167 161 159 165 171 169 163 155 152 159 173 181 184 192 178 158 163 162 162
22 6 38 34 36 77 68 24 33 35 90 75 61 91 77 81 64 79 106 98 78 4 349 21 348 0 56 61 50 49 48 44 51 59 53 46 40 31 29 23 19 20 23 24 25 27 21 19 17 19 21 20 20 15 1 3 6 346 22 40 57 144 185 186 189 182 170 168 161 163 165 163 165 167 162 165 166 165 148 155 197 199 191 182 173 180 191
80 319 88 64 66 58 61 20 0 2 22 80 354 71 327 116 148 143 96 90 125 100 25 40 25 53 59 64 60 56 50 46 51 55 51 46 38 32 27 25 22 19 17 16 17 15 13 16 17 17 12 11 25 16 351 349 334 351 36 26 20 10 220 229 242 230 206 173 165 168 169 169 168 168 158 159 161 154 159 176 184 182 193 192 179 184 174
198 186 150 140 122 90 63 268 254 153 55 98 92 39 29 25 131 137 146 171 192 152 168 93 47 59 61 58 44 55 53 52 57 58 56 50 43 37 33 30 28 24 19 14 9 1 5 7 10 4 8 21 17 5 9 348 339 6 34 67 147 253 266 254 260 267 248 219 206 197 198 180 175 169 170 165 157 157 178 183 173 182 186 177 191 181 169
176 171 193 358 88 158 218 307 298 188 157 163 120 72 359 2 85 176 161 130 137 104 103 103 98 75 69 72 50 54 69 57 54 53 52 49 43 39 37 34 30 23 21 18 11 6 1 356 360 341 359 15 4 357 11 22 27 3 2 4 169 206 208 223 250 264 288 287 261 250 138 154 162 168 168 177 169 164 153 150 168 162 152 175 170 170 175
161 138 87 87 189 236 319 309 263 174 99 99 104 105 64 36 54 93 97 106 116 136 131 122 115 108 107 81 66 45 34 56 63 60 45 34 31 26 26 26 21 17 19 16 11 6 9 6 357 2 3 358 348 11 16 19 17 19 15 11 34 347 252 234 226 250 259 261 247 241 216 183 183 182 184 161 154 163 160 162 160 173 178 186 199 188 186
72 82 127 160 239 274 317 356 38 67 124 143 81 65 23 31 25 68 101 122 137 148 153 148 138 121 114 86 64 53 35 43 53 54 42 29 30 25 3 17 3 7 7 7 12 345 337 12 10 12 0 343 360 359 1 16 0 22 22 27 15 13 33 191 241 243 217 217 222 209 181 181 177 185 180 177 169 165 143 144 144 142 171 186 204 202 167
148 154 106 187 7 358 78 91 193 185 105 45 116 140 217 341 333 68 124 115 113 117 93 229 233 212 57 61 45 25 37 22 24 48 28 21 11 5 345 349 340 328 326 351 339 339 356 14 21 7 353 357 4 6 7 357 355 356 15 16 10 7 356 349 180 195 222 210 215 193 177 167 176 180 179 175 163 161 143 161 162 170 177 170 166 156 144
115 127 69 10 25 262 235 234 284 344 291 216 176 104 39 334 318 14 135 116 98 90 73 48 203 143 82 41 348 322 347 23 6 346 348 345 347 344 336 338 338 344 345 342 348 2 352 4 14 360 2 7 9 14 5 352 351 346 356 345 338 340 335 313 350 165 159 233 192 197 178 178 179 181 171 158 163 171 150 154 143 138 132 98 71 102 126
72 69 130 188 162 241 204 194 243 284 275 165 138 68 192 260 150 43 125 113 69 71 73 12 77 73 102 216 254 269 296 343 334 328 317 326 333 338 344 345 345 341 340 337 337 349 357 357 348 354 359 8 15 10 2 355 349 346 341 323 325 320 312 313 326 233 166 145 313 239 223 183 163 158 163 162 150 124 122 117 115 114 111 108 92 79 110
143 148 119 197 191 131 110 245 272 271 244 155 61 91 261 212 181 128 119 128 139 150 57 67 69 100 135 243 253 237 270 307 285 290 324 335 341 339 336 338 336 327 330 347 349 350 346 335 333 344 350 355 3 360 352 351 356 339 324 315 312 311 311 309 305 290 225 165 174 209 252 254 186 167 153 129 140 128 111 117 119 107 103 108 109 94 90
59 97 114 8 321 284 271 279 288 312 173 85 124 201 228 196 96 111 157 152 171 146 41 69 84 238 188 216 260 313 338 352 340 336 330 333 342 348 354 345 345 349 344 343 335 329 325 323 332 336 344 343 335 335 333 345 317 305 299 308 315 315 310 301 294 265 221 206 190 196 190 186 167 107 160 142 133 124 120 106 106 103 105 110 108 105 90
72 163 104 184 219 239 332 296 277 277 107 166 218 232 207 146 138 150 157 165 212 160 102 94 144 238 326 331 336 333 333 323 299 315 331 341 354 9 14 1 359 356 349 344 337 334 329 330 327 329 332 327 314 316 323 309 289 286 302 307 316 319 316 312 292 288 253 212 212 198 174 151 148 135 134 124 127 127 125 126 122 125 129 121 113 109 96
50 43 77 54 130 239 47 301 330 26 121 233 177 143 109 180 168 152 183 178 189 150 93 203 218 273 304 297 302 316 319 344 348 348 353 358 352 348 350 351 355 351 341 333 328 319 318 318 319 315 324 311 303 304 302 292 295 299 298 304 312 315 313 311 305 297 292 255 201 193 174 171 155 157 159 145 140 138 135 135 133 134 132 129 115 108 97
149 89 116 183 226 275 311 137 140 291 130 143 151 121 95 38 120 209 294 303 248 186 358 332 327 245 278 319 4 353 349 349 346 349 348 347 343 340 335 333 330 337 325 315 311 309 305 308 310 310 315 308 304 303 291 295 309 312 309 307 309 309 307 305 306 299 302 291 243 184 222 162 142 137 152 153 149 150 146 140 136 125 125 117 107 105 103
117 186 180 193 259 265 327 57 88 88 90 107 155 101 129 135 271 149 111 296 346 352 320 342 350 334 332 328 350 18 322 326 324 325 323 321 319 320 321 321 326 328 325 321 318 313 310 295 288 296 300 299 300 296 294 314 317 321 316 313 309 301 292 290 293 296 299 299 312 304 242 157 128 128 130 151 134 147 136 137 136 131 134 133 127 133 128
102 48 53 50 30 32 53 41 58 90 66 26 68 102 83 280 286 144 180 249 321 349 30 5 334 319 316 346 341 340 330 316 301 299 303 304 300 297 303 309 313 312 311 309 310 307 307 309 302 283 275 273 282 284 298 303 304 308 310 309 304 291 287 283 283 280 288 301 292 284 296 315 356 162 162 150 132 144 154 148 146 136 146 138 125 122 121
62 155 274 348 140 60 8 89 93 70 110 159 144 159 183 210 140 107 313 153 194 243 105 232 278 300 350 343 321 319 318 323 320 320 312 306 302 302 305 299 306 306 305 301 298 300 298 304 307 299 289 274 267 278 284 292 297 299 298 295 293 288 273 271 272 268 258 256 266 276 281 257 264 241 73 165 147 159 171 158 134 134 143 139 132 140 148
102 209 167 214 16 321 311 58 187 165 154 93 93 186 190 168 145 135 177 121 40 86 110 269 245 294 307 314 311 314 310 309 313 310 308 308 310 304 294 298 299 297 296 292 295 294 292 294 296 295 293 288 283 277 274 275 282 286 286 281 279 282 279 266 256 254 248 234 228 252 255 264 275 277 318 131 108 153 156 158 149 157 164 166 166 165 167
23 41 43 14 29 354 317 312 291 243 249 265 60 65 113 125 142 114 73 67 172 155 168 146 130 337 290 261 275 289 296 303 307 306 304 303 302 305 311 311 309 300 299 300 296 294 291 291 285 281 281 283 286 281 274 265 259 266 269 272 272 272 275 274 262 247 238 243 229 224 230 202 186 204 221 216 193 217 206 178 166 164 162 184 192 186 167
143 182 201 144 121 252 253 257 256 279 247 164 136 27 53 283 194 90 105 57 55 134 161 162 165 297 296 293 287 290 294 297 298 304 306 308 308 306 304 302 303 302 301 298 298 296 294 288 279 275 276 275 276 277 276 268 255 250 255 267 272 271 270 267 266 249 235 238 240 235 217 198 164 116 55 30 271 211 223 253 265 214 178 184 193 172 171
213 237 207 179 143 176 229 205 232 236 199 128 141 217 249 281 310 150 121 112 50 7 265 226 240 294 295 292 295 293 294 292 292 297 304 307 309 308 310 308 307 305 305 304 298 294 292 291 285 280 276 274 273 271 270 266 255 251 254 261 262 263 262 261 254 247 239 231 219 213 204 175 168 155 120 63 42 19 299 217 189 198 228 228 172 171 161
325 209 176 168 132 162 199 243 246 280 119 129 201 265 248 262 273 140 143 174 166 260 294 313 266 265 284 279 283 284 288 287 296 299 297 298 303 303 304 301 299 299 296 296 293 293 294 291 289 286 282 277 269 263 258 257 256 259 256 250 255 252 250 251 252 250 240 235 209 181 179 162 170 153 150 129 55 28 31 20 212 184 183 175 174 171 164
184 195 161 180 155 184 166 212 267 114 118 141 179 236 207 197 231 173 174 214 236 199 296 290 300 296 272 287 281 280 285 294 298 300 305 307 304 305 304 300 296 296 297 295 292 291 291 290 289 288 285 282 276 267 258 252 249 251 251 249 249 250 244 244 248 245 232 223 201 176 165 159 171 168 171 177 144 79 23 49 59 58 61 142 157 156 146
136 107 106 121 95 87 42 80 50 84 328 178 161 138 200 196 194 145 196 185 234 226 231 263 287 302 294 288 294 293 297 298 303 305 306 308 310 306 300 299 299 298 296 296 295 294 292 292 289 288 284 280 275 270 263 254 246 242 243 242 245 246 239 233 232 234 227 221 202 191 179 177 176 174 186 169 155 145 108 62 30 30 43 40 75 132 138
76 126 105 57 42 281 176 157 195 208 203 174 155 165 203 231 185 179 197 191 199 206 219 239 245 274 296 277 278 287 295 301 303 305 306 302 298 297 300 302 301 300 298 297 294 292 291 290 290 288 283 280 278 272 263 255 248 246 242 240 241 243 241 236 228 225 218 211 203 189 181 182 184 193 190 187 168 161 159 161 168 155 150 64 21 28 130
130 184 113 142 215 213 229 225 170 150 158 157 154 161 190 151 114 151 207 262 279 260 266 239 248 300 305 304 304 312 312 312 313 310 306 300 298 300 300 298 299 300 297 290 287 289 290 289 290 288 285 286 285 280 271 260 252 246 244 238 235 235 234 233 231 227 215 208 195 185 187 191 191 197 190 167 170 194 189 160 139 133 97 75 95 71 99
236 224 248 180 191 191 122 96 101 123 165 255 222 154 154 142 161 193 240 242 240 281 294 286 254 243 251 283 288 308 315 311 310 309 301 298 303 301 300 297 295 295 291 290 291 296 299 299 297 294 293 293 290 282 275 265 255 248 242 237 232 228 226 223 222 220 212 202 197 198 193 188 181 179 174 178 171 160 150 143 141 139 129 133 112 80 65
241 320 135 116 113 134 117 138 172 181 185 196 158 149 193 148 190 247 253 270 264 262 263 269 280 284 277 287 295 303 311 310 302 300 302 305 304 304 299 297 293 285 299 308 310 310 310 308 305 302 300 302 300 294 285 276 263 249 241 235 230 223 220 211 210 211 209 207 201 193 195 185 177 172 168 166 168 177 165 152 154 152 148 149 133 134 133
79 63 89 107 114 132 157 186 186 192 190 152 157 151 300 149 223 265 271 274 280 265 270 267 269 278 292 288 292 296 304 304 303 302 306 310 309 306 303 301 311 323 317 307 306 307 309 309 308 305 307 308 303 297 289 275 265 257 245 232 226 218 213 203 201 201 201 201 198 194 192 182 176 165 167 167 166 166 168 159 148 169 161 147 144 140 140
95 68 61 61 107 175 194 160 170 201 209 189 164 250 230 220 248 260 269 273 263 259 281 298 290 277 277 286 301 311 308 299 301 314 319 318 315 313 310 303 292 291 294 297 303 311 312 311 315 318 317 315 311 306 299 286 269 254 251 239 225 210 206 201 198 197 193 190 189 193 194 182 180 168 161 169 175 175 165 161 160 165 165 153 148 148 147
104 49 339 274 49 176 219 218 179 221 216 223 228 230 244 232 242 256 264 266 283 279 267 271 272 271 270 302 324 320 313 309 312 318 327 326 324 321 319 313 302 302 300 301 306 311 318 323 322 320 322 322 320 320 318 310 293 268 255 233 229 211 184 187 188 186 188 184 181 187 185 183 171 167 174 168 160 158 162 163 160 158 160 149 143 145 153
167 192 207 199 181 189 196 219 209 222 248 250 251 260 268 258 245 258 271 277 262 267 264 259 267 277 297 338 328 334 332 344 353 341 327 325 323 322 322 316 310 304 299 302 310 332 337 331 326 328 326 324 329 333 336 335 330 322 279 248 213 196 169 169 177 174 175 174 178 171 165 159 156 155 144 150 154 156 158 179 163 155 137 124 126 133 140
169 212 209 217 210 197 183 180 187 204 216 258 293 276 249 259 262 264 264 261 257 243 239 231 249 254 327 335 347 348 355 340 319 316 322 324 322 322 320 320 322 342 349 343 351 346 337 331 332 329 328 333 345 351 352 346 349 352 2 3 74 134 111 132 148 157 148 147 137 134 132 131 134 146 152 135 118 124 116 171 208 146 132 125 123 123 131
171 182 194 217 202 190 187 194 187 188 192 210 230 253 284 288 285 280 273 257 241 253 231 187 170 127 45 4 355 350 344 329 319 318 319 323 323 319 321 327 345 358 349 339 352 348 339 334 333 334 334 346 353 358 359 356 2 13 25 34 47 55 75 95 98 101 106 116 116 115 120 125 130 129 122 117 123 122 119 123 199 124 113 119 125 121 113
198 200 200 190 182 173 189 202 194 182 201 219 243 265 275 279 261 254 254 272 278 261 191 158 124 119 183 318 335 331 311 313 316 317 315 321 323 323 327 342 6 1 349 345 337 337 331 334 332 334 339 355 353 360 2 6 14 17 29 32 45 58 68 74 75 85 81 92 103 110 110 106 100 99 108 115 122 124 124 116 125 115 105 106 102 106 109
205 196 193 185 180 180 203 216 200 182 185 245 257 235 241 255 259 261 267 279 284 266 203 169 166 178 174 217 327 339 327 332 341 332 332 331 333 329 344 12 2 352 349 330 319 321 323 329 333 340 349 354 353 357 4 12 22 26 33 35 43 49 56 63 66 70 76 82 89 99 109 111 113 108 105 102 108 113 113 114 109 104 111 114 115 109 104
205 196 189 201 165 192 221 202 148 170 180 216 258 283 261 237 244 257 276 279 268 232 171 154 158 146 189 193 291 346 344 345 350 350 345 341 340 345 335 325 341 329 294 305 312 312 322 333 341 346 353 351 354 356 6 16 24 32 34 40 44 52 53 63 65 67 62 68 73 80 84 87 95 100 103 100 99 95 97 102 105 105 105 109 110 111 112
208 193 202 176 197 218 219 245 225 217 212 206 211 257 275 275 246 224 257 303 305 38 152 132 123 154 219 211 264 309 319 338 350 356 353 342 339 348 340 340 352 343 331 327 325 322 331 341 356 360 353 352 359 359 3 14 28 35 35 41 44 46 49 53 61 66 67 69 73 72 78 80 83 85 89 90 91 92 97 98 94 98 98 97 101 106 107
209 203 198 183 207 198 210 226 249 251 212 211 223 245 255 248 240 222 252 249 270 346 147 151 137 149 174 224 205 243 293 354 3 355 349 355 11 2 356 339 337 339 337 334 328 330 344 357 1 358 355 353 2 9 9 15 26 35 39 42 47 51 54 51 52 53 60 63 66 71 75 78 79 78 78 82 82 84 83 83 86 89 99 105 104 101 94
220 196 188 200 209 210 217 224 246 296 280 245 233 236 252 228 195 208 228 215 233 44 137 120 150 173 176 143 108 47 30 8 6 359 4 17 346 346 350 329 332 329 332 335 340 348 356 1 359 2 356 355 2 17 29 31 30 33 39 40 47 49 55 56 61 62 59 59 62 68 67 70 73 74 71 72 71 73 79 80 80 76 73 78 86 88 99
202 196 205 209 213 211 213 217 220 230 257 280 271 259 244 215 209 210 150 169 195 172 148 129 107 97 81 69 65 46 360 360 10 359 347 325 297 250 291 297 318 325 336 345 347 355 360 356 357 356 1 9 16 15 33 38 36 36 39 41 45 47 51 53 57 58 61 66 65 62 65 69 71 74 73 71 73 67 69 76 82 83 85 87 91 94 95
204 203 205 207 215 213 204 212 226 233 252 269 260 233 205 205 197 185 184 184 202 196 173 173 157 146 143 125 99 53 12 4 354 346 9 347 342 324 2 340 321 325 346 352 352 360 356 356 355 1 12 24 25 31 35 36 38 42 44 44 44 46 49 52 52 57 60 62 62 64 66 73 72 68 72 79 80 81 82 82 86 88 92 91 91 92 93
205 205 207 212 214 192 200 209 212 222 225 223 201 179 191 206 210 196 178 182 197 204 189 186 183 184 183 170 174 192 228 231 204 101 45 6 5 326 339 343 335 346 349 357 2 1 357 359 2 17 29 30 35 38 42 38 38 40 45 51 51 52 51 53 53 55 59 62 65 67 65 66 70 74 79 78 84 87 86 89 89 91 95 97 98 98 98
217 216 214 210 207 211 214 211 220 209 201 202 244 258 217 208 205 196 186 185 196 208 197 190 186 191 184 187 194 246 304 335 175 175 181 176 187 267 312 323 333 351 3 11 12 3 356 358 15 27 34 39 41 43 40 39 41 42 44 45 50 54 57 56 58 61 61 64 65 65 69 73 74 76 80 85 86 86 84 85 84 76 77 83 86 88 89
219 212 203 209 224 228 223 210 177 176 191 202 235 255 237 205 206 201 198 194 196 206 199 188 190 197 187 173 166 157 134 26 353 2 93 299 257 290 323 346 5 6 15 17 10 7 1 4 19 29 39 43 48 48 44 44 43 45 45 47 46 52 53 59 62 66 69 73 76 79 78 76 77 78 76 75 74 75 77 77 75 75 74 76 76 77 78
205 211 214 208 219 226 188 157 161 193 204 214 218 231 224 194 197 207 200 183 198 202 200 198 191 191 184 188 195 185 169 145 110 311 290 85 24 17 23 19 2 13 21 19 20 10 12 18 27 33 38 44 49 50 49 48 50 48 50 48 50 46 50 53 53 56 63 64 68 72 73 75 79 80 80 78 77 74 76 78 81 81 80 80 82 84 88
213 217 216 204 212 204 184 192 196 210 222 222 214 232 201 174 178 180 188 189 184 195 203 204 199 200 199 196 188 204 197 181 136 191 216 143 95 63 19 15 20 24 26 27 19 11 11 21 28 30 36 41 47 49 54 54 54 55 53 53 51 52 54 58 56 58 64 64 65 67 72 77 78 79 82 80 80 77 79 78 78 80 83 85 83 82 82
216 216 220 204 204 204 200 195 209 219 223 207 216 214 163 140 156 210 200 190 195 193 198 210 208 208 202 198 197 202 198 203 215 238 192 148 121 106 60 51 31 30 33 36 25 14 11 24 29 30 33 38 41 47 52 58 58 57 60 56 56 56 56 61 63 62 63 64 61 63 63 65 66 64 66 72 72 73 72 76 77 75 76 76 75 76 76
200 201 218 217 212 211 200 198 208 209 208 207 207 173 158 175 196 198 189 186 167 180 209 221 231 220 210 214 204 199 200 205 204 196 181 158 133 107 86 72 55 50 37 36 35 22 19 31 33 34 37 40 43 45 49 58 60 58 59 62 60 60 59 58 60 63 61 64 67 64 64 66 68 69 68 71 73 72 70 70 69 68 71 76 77 76 75
211 215 222 217 211 205 204 215 224 218 212 203 180 167 184 195 194 189 182 182 184 195 191 185 225 234 199 199 199 202 186 176 183 192 171 159 149 132 103 87 77 57 51 38 26 33 33 33 45 50 52 49 47 48 49 53 56 56 55 60 64 62 60 64 67 69 62 64 72 73 62 59 67 71 65 60 66 69 69 71 76 75 73 69 72 72 75